Theta_e
303 302 303 303 304 304 304 304 304 304 305 306 307 307 315 315 318 316 316 318 321 321 323 332 336 337 345 334 337 337 337 342 342 345 345 348 357 353 352 354 352 351 350 350 353
303 303 302 303 303 304 304 304 304 304 305 305 307 308 314 312 316 319 319 318 319 321 321 325 323 324 326 330 338 338 339 340 338 337 347 348 355 354 355 353 354 353 352 353 354
303 302 303 303 303 303 304 304 305 305 305 305 307 308 314 312 317 314 323 322 319 321 322 324 321 321 323 328 336 340 341 340 340 337 346 348 351 348 352 354 353 354 354 353 353
304 302 302 302 303 303 303 304 305 305 305 306 307 307 312 317 319 317 321 321 319 320 321 322 320 322 324 325 326 337 339 340 340 342 341 346 346 353 350 350 349 349 352 353 353
303 303 302 302 302 303 303 303 305 306 306 306 307 310 315 317 316 322 319 320 321 321 322 319 319 322 326 325 325 329 328 338 340 338 339 343 347 352 348 348 349 349 352 353 352
303 302 302 302 302 302 302 303 305 306 307 307 308 311 316 316 320 318 321 325 324 324 322 319 321 323 326 326 324 326 336 340 341 341 340 345 348 349 350 351 353 351 352 352 352
303 302 302 302 302 302 303 304 305 306 307 310 311 316 321 316 321 320 320 324 324 324 319 321 321 323 323 325 324 338 343 342 342 339 344 344 349 350 350 351 355 355 354 353 352
302 301 302 302 302 302 303 305 306 307 319 320 313 319 314 322 321 322 327 321 321 323 322 322 321 320 323 323 335 339 340 345 344 341 343 343 349 352 349 351 355 356 355 354 353
304 302 301 301 301 302 304 306 307 320 314 314 321 320 320 324 323 326 327 321 319 320 321 319 320 320 321 326 336 334 345 344 348 342 344 347 350 351 348 349 354 356 355 354 353
304 303 302 301 301 302 304 309 316 326 323 323 324 325 321 323 324 325 325 321 317 316 319 318 315 319 318 331 343 339 343 342 349 344 347 348 349 352 348 348 351 352 352 352 352
303 302 302 301 301 302 308 310 309 313 322 320 321 322 321 321 324 325 323 320 315 315 315 315 317 318 321 323 333 333 342 344 344 342 345 348 349 353 350 348 349 348 348 349 348
303 302 302 301 302 305 305 306 310 309 307 310 313 316 319 323 323 322 324 322 320 316 315 316 316 317 320 324 327 334 338 341 339 342 345 350 352 351 351 350 348 348 347 347 346
302 303 303 301 301 311 303 306 309 306 310 313 313 316 316 318 321 323 323 320 320 318 315 315 318 319 325 326 326 326 329 335 341 344 347 350 353 349 350 348 347 346 346 345 346
301 302 305 302 303 303 305 308 305 307 315 318 319 319 321 321 323 323 323 321 318 319 315 316 317 321 323 327 326 327 325 328 339 345 346 344 345 350 348 349 347 346 345 345 345
300 300 305 305 303 305 306 304 306 310 321 320 322 321 319 319 319 322 322 321 320 319 318 319 318 319 324 326 326 327 326 329 336 339 343 350 342 341 349 350 348 346 345 344 344
300 300 304 304 304 303 305 304 310 315 321 320 324 322 323 322 321 321 322 321 319 319 317 319 318 319 319 323 327 324 321 322 324 332 340 342 344 339 350 352 349 347 347 346 345
299 299 302 304 305 304 305 306 313 317 318 320 321 320 320 320 322 321 320 320 321 321 320 319 318 320 322 323 324 320 321 323 328 337 339 333 344 341 339 346 346 346 346 346 346
299 300 303 303 304 304 304 306 316 316 317 317 320 319 321 319 320 322 319 321 317 318 315 318 318 318 320 321 322 321 321 323 326 329 337 334 347 344 339 337 342 342 344 343 346
300 303 305 307 307 305 301 305 310 316 320 322 318 320 320 320 320 321 319 319 318 315 319 316 316 317 319 321 320 320 321 319 319 321 324 326 326 329 330 331 337 340 341 342 345
304 302 303 310 308 305 302 304 308 313 316 317 319 319 320 319 319 319 320 320 318 316 315 315 317 316 318 321 320 319 318 322 317 324 328 325 327 329 331 334 331 336 340 341 342
303 300 306 309 306 302 302 303 306 309 311 311 317 318 319 318 319 319 319 320 320 320 314 313 315 317 318 318 319 320 319 317 317 318 322 323 325 323 327 329 332 334 338 338 340
302 298 308 307 309 303 306 306 309 310 311 310 313 314 315 317 317 317 319 320 320 319 316 313 315 318 317 317 317 319 318 318 322 320 319 320 323 324 326 327 333 333 336 334 337
302 302 306 306 311 311 310 314 315 315 313 315 314 312 312 314 317 316 318 320 320 321 320 314 312 317 316 315 318 319 319 316 315 317 322 325 325 324 325 329 333 334 333 333 338
304 305 305 304 303 308 307 311 315 317 317 317 316 315 316 318 315 317 322 324 323 324 337 322 311 317 321 319 318 321 321 319 319 320 321 324 325 325 330 330 332 334 334 332 336
305 308 307 311 309 309 306 310 316 318 315 317 318 318 319 319 322 320 321 322 328 330 327 314 316 315 320 318 319 320 322 321 321 321 324 324 326 326 328 329 330 334 334 335 333
308 308 306 308 308 307 310 311 315 315 313 314 318 319 318 320 322 322 322 327 329 328 327 316 317 314 320 318 319 320 320 322 323 323 322 323 325 323 326 328 330 331 333 335 335
303 304 306 309 310 310 309 311 313 313 313 313 314 315 317 322 319 319 321 323 328 328 327 319 315 315 320 318 317 319 320 320 322 323 324 325 326 324 329 329 330 329 331 334 334
Wind_Speed
24 25 26 25 25 26 26 25 24 25 24 24 25 26 23 25 26 19 7 11 7 16 11 13 9 7 9 4 6 3 4 3 7 8 5 6 3 3 5 10 3 5 5 12 25
26 25 25 25 25 26 26 27 27 26 26 24 24 24 22 23 21 13 27 21 17 13 16 13 7 6 3 4 4 4 3 8 7 7 8 10 6 7 4 10 2 7 15 26 25
28 29 28 25 25 25 26 27 29 29 28 28 25 21 17 17 6 8 4 13 16 20 14 11 7 8 5 1 2 3 5 5 5 7 15 12 7 5 10 5 5 13 19 22 23
26 28 30 28 27 27 28 27 28 30 29 28 27 18 11 5 7 1 2 12 10 23 14 8 4 6 5 5 4 1 6 7 7 8 8 13 9 5 9 5 7 14 20 20 18
28 27 28 29 30 30 29 29 28 27 30 30 27 10 3 1 12 23 20 12 5 22 19 7 7 6 6 5 4 4 3 9 8 9 9 13 7 5 6 6 15 17 18 18 15
30 29 28 29 31 33 33 32 31 28 29 29 19 4 1 5 8 5 13 1 10 20 14 9 8 6 5 3 5 3 3 8 7 9 5 9 5 8 4 14 15 18 17 16 16
31 31 31 31 33 34 34 34 33 30 26 18 7 6 2 18 12 10 13 2 16 15 7 10 5 4 5 2 3 6 7 9 4 4 4 12 1 6 11 16 16 16 15 14 14
33 33 32 34 35 35 35 33 33 23 12 6 9 6 7 9 10 13 9 5 8 18 13 12 7 2 3 1 4 4 5 5 4 6 7 6 7 2 15 17 16 15 14 14 14
35 34 33 35 38 38 36 33 25 4 5 8 6 4 9 7 7 5 10 5 12 12 13 8 6 3 1 6 4 3 7 4 3 6 7 3 4 8 13 15 15 16 15 14 13
35 36 35 37 37 39 36 24 2 2 3 2 2 1 5 2 5 12 3 12 4 7 4 2 4 3 3 4 6 6 6 3 6 9 8 5 4 12 14 14 16 16 15 16 15
37 37 38 38 39 37 24 4 4 2 1 6 5 5 10 13 11 2 6 5 4 4 7 5 4 7 10 10 6 7 7 12 3 2 2 5 5 15 15 14 15 15 15 16 15
36 36 39 39 39 20 9 4 5 1 10 12 17 15 20 2 5 9 4 5 3 6 3 4 8 10 7 6 7 8 7 7 1 4 4 1 3 9 16 18 17 16 15 14 16
37 37 41 39 26 3 20 1 3 13 3 8 7 6 7 13 12 17 9 5 4 6 5 6 4 10 7 5 7 5 9 7 14 7 3 6 3 8 11 8 11 13 12 13 15
39 38 41 41 4 22 10 5 17 1 3 8 5 5 4 8 6 12 14 8 4 10 8 6 5 9 9 10 8 7 8 8 9 12 7 6 5 8 12 17 14 17 15 16 15
40 38 35 25 18 9 3 21 18 4 5 4 4 3 3 8 3 6 10 4 10 7 6 7 5 8 5 8 10 9 8 10 7 7 5 3 3 7 13 10 22 20 20 19 18
41 39 35 14 10 21 10 18 2 4 7 6 2 0 4 3 5 3 5 4 6 7 3 9 3 7 12 5 9 8 7 7 5 4 1 9 9 5 7 24 24 16 20 19 17
44 40 33 16 6 5 11 4 3 4 3 4 1 2 3 6 5 3 7 7 7 6 6 2 7 3 4 6 1 6 7 1 2 1 6 4 3 12 11 16 23 23 22 21 18
47 39 21 19 12 15 4 4 5 5 9 5 4 3 1 2 4 6 6 5 1 6 4 7 5 8 4 7 8 7 9 6 7 5 5 4 8 9 21 16 13 9 16 12 17
44 22 13 4 6 12 5 3 8 7 5 2 5 2 3 4 4 3 4 8 9 9 10 7 7 4 5 5 9 4 4 6 7 2 3 4 7 9 7 8 9 13 11 17 19
30 12 9 8 9 10 4 6 6 6 2 1 3 3 1 3 6 5 3 4 5 11 6 9 2 7 6 4 3 9 9 4 3 5 4 4 4 6 5 11 9 8 16 18 18
8 4 11 4 13 4 4 8 8 8 4 6 4 3 2 2 4 3 6 4 6 4 9 7 4 6 6 10 12 3 3 5 5 5 7 4 6 8 10 11 11 14 18 18 18
5 4 6 10 1 1 3 6 5 5 4 5 3 6 6 6 5 7 9 9 7 7 7 11 9 10 12 4 7 10 11 9 6 5 2 4 7 5 12 6 9 13 15 12 13
4 4 3 4 2 3 6 4 3 2 5 3 5 7 5 7 4 8 8 9 12 7 6 6 5 7 6 5 1 5 5 5 5 4 8 6 6 3 6 8 9 12 9 9 10
3 4 3 2 0 2 4 5 4 4 6 5 5 4 3 5 6 6 4 5 6 7 15 13 4 10 17 13 6 5 7 7 7 5 6 7 8 6 10 10 8 9 9 10 12
2 3 1 3 2 4 3 4 3 4 3 3 4 7 9 7 6 8 9 17 5 5 3 8 10 6 19 12 8 8 9 10 8 7 8 8 10 13 13 13 13 14 7 8 10
3 3 4 4 4 4 2 3 3 3 3 6 6 9 5 9 11 9 9 7 6 1 3 2 7 9 18 17 15 13 12 9 8 4 5 4 8 9 6 3 6 10 11 12 12
3 4 2 4 4 3 3 2 6 10 8 13 7 6 11 12 7 11 7 4 5 7 2 2 3 4 14 9 6 6 19 11 7 6 10 9 18 6 6 9 10 10 13 16 16
Wind_Direction
358 357 354 350 348 346 346 346 348 347 344 340 341 338 330 326 321 309 249 246 212 212 178 143 165 192 182 224 181 112 80 169 176 158 199 152 125 142 97 139 198 151 142 143 152
352 352 352 351 347 345 342 341 341 343 340 338 336 336 330 329 323 275 283 262 223 200 195 161 176 182 204 219 190 121 119 194 187 164 171 162 146 152 119 163 95 92 112 137 149
354 350 347 348 347 344 341 339 337 337 337 333 332 331 330 332 323 250 69 58 218 215 194 184 159 153 201 212 209 176 209 167 178 175 148 155 156 175 141 223 202 157 150 152 155
353 351 346 345 344 342 340 336 334 331 330 328 326 326 330 345 300 76 335 316 313 206 193 156 146 134 161 191 209 202 244 166 168 165 141 158 141 154 162 215 169 162 153 155 160
350 349 348 344 341 340 338 333 331 325 324 322 319 314 354 271 247 279 298 305 227 178 174 161 151 145 178 190 169 242 217 168 154 138 149 128 157 163 192 124 129 143 152 164 170
350 347 346 343 338 337 335 331 329 323 319 316 313 208 207 250 258 280 358 315 175 161 176 154 182 185 158 189 150 239 116 135 108 116 100 119 137 118 190 136 138 152 166 172 178
350 347 345 342 338 336 332 328 327 320 317 311 296 149 231 242 263 251 294 300 174 165 147 204 150 116 122 186 234 142 99 69 85 107 107 108 185 209 153 149 155 167 174 181 190
347 346 344 341 338 335 329 326 323 321 323 311 145 130 238 270 285 276 262 209 171 185 170 205 213 157 188 192 56 80 65 111 221 148 173 115 246 143 156 156 167 178 184 189 195
347 346 343 339 337 337 328 326 319 6 52 115 112 124 267 300 277 341 210 182 156 179 198 141 144 181 49 102 51 10 151 126 160 206 146 155 228 173 171 166 172 182 190 196 200
346 347 345 340 337 335 330 326 348 101 90 61 91 32 265 260 320 310 243 164 134 115 92 137 75 106 46 96 189 181 134 148 194 192 164 165 243 164 180 176 181 189 193 196 200
345 346 344 338 338 334 338 350 5 341 218 222 196 250 288 282 289 208 92 123 113 100 158 187 127 178 187 188 183 146 168 177 111 35 70 184 188 177 185 195 197 196 199 202 204
344 346 342 337 340 336 6 21 97 340 301 234 245 248 242 337 308 284 210 136 131 190 136 91 201 201 173 160 165 162 149 206 23 135 141 187 287 192 199 203 201 204 210 207 212
343 346 343 336 337 1 336 182 340 340 254 289 218 227 224 178 219 256 155 150 149 180 190 155 225 146 142 172 141 170 165 169 211 142 84 128 319 191 217 215 218 227 222 217 212
340 344 342 338 10 329 306 167 327 266 7 278 272 265 136 141 228 209 179 148 156 186 155 213 208 159 151 175 150 162 204 165 140 152 198 163 245 227 204 211 215 221 213 216 213
339 339 336 338 302 294 295 317 328 150 329 247 264 179 148 158 213 213 169 102 161 154 130 239 170 159 166 191 164 214 158 154 163 165 125 196 102 264 175 222 227 218 213 213 208
335 334 332 326 287 283 314 335 81 53 250 303 230 124 102 223 292 103 141 92 152 155 123 221 219 168 186 177 182 142 91 55 54 104 130 217 185 251 187 214 230 217 216 208 205
332 329 315 271 235 271 336 4 62 183 307 259 254 17 242 218 218 209 151 155 151 143 193 319 258 211 152 130 94 83 82 6 48 85 209 210 153 230 216 221 222 210 208 204 198
330 327 309 270 258 255 308 63 204 220 235 292 297 312 247 356 228 165 117 162 299 114 131 173 236 178 173 167 170 179 155 155 187 180 217 114 208 244 230 230 244 229 213 194 197
330 326 298 303 247 187 104 188 204 200 227 264 332 57 321 342 84 68 181 188 189 173 178 164 248 283 174 152 144 194 157 187 107 40 93 201 283 310 239 248 219 222 175 196 197
327 318 296 321 161 147 96 225 214 216 277 319 189 232 220 18 36 40 299 214 207 182 164 209 240 223 242 139 213 164 168 98 356 142 220 267 265 228 244 245 224 216 203 203 201
343 336 353 142 139 50 187 222 225 242 220 205 200 231 174 23 186 220 225 264 193 214 180 150 134 268 132 210 208 120 160 56 121 134 172 198 256 215 213 219 218 220 212 199 195
2 324 32 148 62 180 194 203 229 243 206 250 186 191 192 191 235 219 217 217 182 139 165 207 189 216 213 230 191 184 181 163 182 220 213 175 252 230 217 209 221 231 211 200 196
312 277 350 219 212 268 303 289 275 262 230 221 226 206 196 201 223 206 219 231 229 167 198 186 208 216 306 324 255 195 173 131 114 95 188 182 257 267 255 245 226 222 190 186 182
313 323 309 47 305 357 340 269 266 261 253 212 222 265 261 261 228 252 236 270 180 209 236 177 160 186 225 228 174 192 178 174 150 146 174 211 232 257 242 226 229 227 201 187 195
206 251 238 306 315 335 268 293 281 275 322 287 279 217 210 221 225 223 244 269 280 13 77 157 193 201 227 197 180 205 180 169 177 187 173 237 197 233 217 212 210 211 195 166 188
302 338 348 287 293 293 193 271 295 326 272 257 210 255 284 228 206 228 204 209 217 55 46 2 241 194 232 217 202 222 231 182 195 164 247 287 246 220 241 102 155 193 185 200 205
329 293 275 286 311 306 236 348 311 323 260 244 277 340 291 253 287 271 243 277 196 147 285 279 188 125 234 193 158 240 224 215 198 189 189 196 232 183 193 206 222 186 188 204 215